Showing default

IRIDIUM 112, 41925

Orbit data source: Space-Track

IRIDIUM 112, 41925 is a payload satellite owned by Iridium (US) in LEO that was launched on Sat, 14 Jan 2017 UTC via an FALCON 9 launch vehicle from the Air Force Western Test Range (AFWTR). Payload-class satellites include a variety of spacecraft equipped with specific instruments for various scientific and technological missions. These include communications satellites like Starlink; space stations such as the ISS; scientific satellites like the Hubble; Earth observation satellites from companies like Planet Labs, Umbra, and HawkEye 360; GPS; miniature CubeSats for education and research; and military/defense satellites.

Loading next visibility...
Identifier
41925, 2017-003J
Orbit
LEO
Country
Flag of USUS
Related business
Manufacturer
OATK SSG Gilbert
Mission
Operational Commercial Communications
Bus & Motor
ELITEBUS, Unknown motor
Mass
860 kg wet, 700 kg dry
Launch date (UTC)
2017-01-14 (9 years ago)
Launch vehicle
FALCON 9
Launch site
Air Force Western Test Range (AFWTR)
Object type
Payload
Rocket body
Debris
Shape & HBR
Trap Box + 2 Pan, 4.8 m
Radar Cross Section
10.154 m², Large (>1 m²)

Expand to show TLE details & history
Last TLE update: 8 hours ago

TLE from 8 hours ago
0 IRIDIUM 112
1 41925U 17003J   26035.29428512  .00000338  00000-0  11346-3 0  9993
2 41925  86.4017 143.8590 0002206 100.5611 259.5833 14.34219272474222
Epoch: 2026-02-04T07:03Z
TLE epoch observation values (Epoch: 2026-02-04T07:03:46.234Z)
Latitude
-0.00006°
Longitude
-96.54658°
Altitude
780.999 km
Speed
7.463 km/s
True Right ascension
09h 35m 26s
True Declination
0° 00' 00"
Sunlit
Object was in full shadow at epoch
Visualization orbit readout
Latitude
Unknown
Longitude
Unknown
Altitude
Unknown
Speed
Unknown
Apparent Right ascension
Unknown
Apparent Declination
Unknown
Sunlit
N/A
Visualization observer readout
Local Sidereal Time
17:25:35
Azimuth
Unknown
Elevation
Unknown
Doppler factor
Unknown
Orbital elements
Apogee altitude
776.204 km
Perigee altitude
773.049 km
Semi-major axis
7,152.763 km
Eccentricity
0.00022
Inclination
86.4017°
RAAN
143.859°
Arg. of periapsis
100.5611°
True anomaly
259.55844°
Mean anomaly
259.5833°
Eccentric anomaly
259.57087°
Mean motion
3.58783 °/min
Orbital period
100.34 mins
BSTAR
0.00011346
Loading maneuver chart data...
Computing Atmospheric mass density...
Loading historical data...
Loading historical data...
Loading historical data...
Loading historical data...
Loading historical data...
Loading historical data...
Loading historical data...

Documentation

Showing up to 5 results
|